Bookmark and Share
Track history (hours):
 

Rp Zug

Last reported at 2014-Apr-24 05:33 UTC. Time now 2014-Apr-24 06:14 UTC.
Position N 52°24' E 004°46'.

Type: Tanker. MMSI: 269057351.

NotesDate/timePositionNaut miles runAvg speedWind from/ knotsBaromVisibWave heightAir tempDewpointWater temp
2014-Apr-24 05:33N 52°24' E 004°46'0 0.0
2014-Apr-24 04:33N 52°24' E 004°46'0 0.0
2014-Apr-24 03:33N 52°24' E 004°46'0 0.0
2014-Apr-24 02:33N 52°24' E 004°46'0 0.0
2014-Apr-24 01:33N 52°24' E 004°46'0 0.0
2014-Apr-24 00:33N 52°24' E 004°46'0 0.0
2014-Apr-23 23:33N 52°24' E 004°46'1 0.9
2014-Apr-23 22:33N 52°25' E 004°48'0 0.0
2014-Apr-23 21:33N 52°25' E 004°48'0 0.0
2014-Apr-23 20:33N 52°25' E 004°48'0 0.0
2014-Apr-23 19:33N 52°25' E 004°48'0 0.0
2014-Apr-23 18:33N 52°25' E 004°48'3 2.6
2014-Apr-23 17:34N 52°25' E 004°52'8 8.2
2014-Apr-23 16:33N 52°19' E 005°01'10 9.7
2014-Apr-23 15:33N 52°09' E 005°00'9 9.5
2014-Apr-23 14:33N 52°01' E 005°09'7 7.1
2014-Apr-23 13:32N 51°58' E 005°19'7 7.0
2014-Apr-23 12:33N 51°54' E 005°28'1310.7
2014-Apr-23 11:20N 51°52' E 005°49'7 1.1
2014-Apr-23 04:28N 51°58' E 005°56'0 0.0
2014-Apr-22 23:17N 51°58' E 005°56'9 5.1
2014-Apr-22 21:32N 51°51' E 006°05'  
2014-Apr-20 07:32N 51°51' E 006°05'9 4.6
2014-Apr-20 05:33N 51°51' E 005°51'6 6.1
2014-Apr-20 04:30N 51°54' E 005°41'5 5.7
2014-Apr-20 03:33N 51°54' E 005°32'0 0.1
2014-Apr-20 02:33N 51°54' E 005°32'0 0.0
2014-Apr-20 01:33N 51°54' E 005°32'0 0.0
2014-Apr-20 00:33N 51°54' E 005°32'0 0.0
2014-Apr-19 23:33N 51°54' E 005°32'0 0.0
2014-Apr-19 22:33N 51°54' E 005°32'0 0.0
2014-Apr-19 21:33N 51°54' E 005°32'5 5.4
2014-Apr-19 20:33N 51°51' E 005°25'5 4.6
2014-Apr-19 19:33N 51°49' E 005°18'7 6.9
2014-Apr-19 18:33N 51°49' E 005°07'8 7.9
2014-Apr-19 17:33N 51°49' E 004°54'9 8.6
2014-Apr-19 16:34N 51°49' E 004°40'8 7.7
2014-Apr-19 15:33N 51°50' E 004°28'9 8.2
2014-Apr-19 14:29N 51°53' E 004°14'5 4.4
2014-Apr-19 13:27N 51°56' E 004°10'0 0.0
2014-Apr-19 12:25N 51°56' E 004°10'0 0.0
2014-Apr-19 11:33N 51°56' E 004°10'0 0.0
2014-Apr-19 10:33N 51°56' E 004°10'0 0.0
2014-Apr-19 09:32N 51°56' E 004°10'0 0.0
2014-Apr-19 08:33N 51°56' E 004°10'0 0.0
2014-Apr-19 07:32N 51°56' E 004°10'0 0.0
2014-Apr-19 06:31N 51°56' E 004°10'0 0.0
2014-Apr-19 05:33N 51°56' E 004°10'0 0.0
2014-Apr-19 04:33N 51°56' E 004°10'0 0.1
2014-Apr-19 03:33N 51°56' E 004°10'0 0.0
2014-Apr-19 02:33N 51°56' E 004°10'1 1.1
2014-Apr-19 01:33N 51°57' E 004°09'0 0.0
2014-Apr-18 22:16N 51°57' E 004°09'0 0.0
2014-Apr-18 19:05N 51°57' E 004°09'0 0.0
2014-Apr-18 18:03N 51°57' E 004°09'0 0.0
2014-Apr-18 17:09N 51°57' E 004°09'0 0.0
2014-Apr-18 16:33N 51°57' E 004°09'0 0.0
2014-Apr-18 15:32N 51°57' E 004°09'0 0.0
2014-Apr-18 14:27N 51°57' E 004°09'0 0.0
2014-Apr-18 12:30N 51°57' E 004°09'0 0.0
2014-Apr-18 11:30N 51°57' E 004°09'0 0.0
2014-Apr-18 10:31N 51°57' E 004°09'0 0.0
2014-Apr-18 09:33N 51°57' E 004°09'0 0.0
2014-Apr-18 08:30N 51°57' E 004°09'0 0.0
2014-Apr-18 07:30N 51°57' E 004°09'0 0.0
2014-Apr-18 06:29N 51°57' E 004°09'0 0.0
2014-Apr-18 05:33N 51°57' E 004°09'0 0.0
2014-Apr-18 04:33N 51°57' E 004°09'0 0.0
2014-Apr-18 03:33N 51°57' E 004°09'0 0.0
2014-Apr-18 02:32N 51°57' E 004°09'0 0.0
2014-Apr-18 01:33N 51°57' E 004°09'0 0.0
2014-Apr-18 00:33N 51°57' E 004°09'0 0.0
2014-Apr-17 23:33N 51°57' E 004°09'0 0.0
2014-Apr-17 22:32N 51°57' E 004°09'0 0.0
2014-Apr-17 21:32N 51°57' E 004°09'0 0.0
2014-Apr-17 20:33N 51°57' E 004°09'1 0.6
2014-Apr-17 19:30N 51°57' E 004°08'5 5.6
2014-Apr-17 18:33N 51°54' E 004°14'5 4.8
2014-Apr-17 17:33N 51°51' E 004°21'8 8.0
2014-Apr-17 16:33N 51°50' E 004°33'8 7.7
2014-Apr-17 15:33N 51°49' E 004°46'1110.7
2014-Apr-17 14:33N 51°49' E 005°03'1010.4
2014-Apr-17 13:33N 51°49' E 005°20'9 9.2
2014-Apr-17 12:34N 51°54' E 005°32'1110.5
2014-Apr-17 11:31N 51°52' E 005°50'8 8.2
2014-Apr-17 10:32N 51°52' E 006°03'46 7.7
2014-Apr-17 04:33N 51°15' E 006°46'6 5.7
2014-Apr-17 03:33N 51°09' E 006°47'15 6.8
2014-Apr-17 01:23N 50°56' E 006°58'110 2.7
2014-Apr-15 08:32N 49°23' E 008°30'7 7.2
2014-Apr-15 07:34N 49°16' E 008°27'9 8.9
2014-Apr-15 06:34N 49°08' E 008°22'4 3.7
2014-Apr-15 05:34N 49°04' E 008°20'0 0.0
2014-Apr-15 03:34N 49°04' E 008°20'0 0.0
2014-Apr-15 02:34N 49°04' E 008°20'0 0.0
2014-Apr-15 01:34N 49°04' E 008°20'0 0.0
2014-Apr-15 00:34N 49°04' E 008°20'0 0.0
2014-Apr-14 23:34N 49°04' E 008°20'0 0.0
2014-Apr-14 22:33N 49°04' E 008°20'0 0.2
2014-Apr-14 21:33N 49°04' E 008°20'0 0.0
2014-Apr-14 20:34N 49°04' E 008°20'0 0.0
2014-Apr-14 19:34N 49°04' E 008°20'0 0.0
2014-Apr-14 18:34N 49°04' E 008°20'0 0.0
2014-Apr-14 17:34N 49°04' E 008°20'0 0.0
2014-Apr-14 16:34N 49°04' E 008°20'0 0.0
2014-Apr-14 15:34N 49°04' E 008°20'0 0.0
2014-Apr-14 14:33N 49°04' E 008°20'0 0.0
2014-Apr-14 13:33N 49°04' E 008°20'0 0.0
2014-Apr-14 11:33N 49°04' E 008°20'0 0.0
2014-Apr-14 10:33N 49°04' E 008°20'0 0.0
2014-Apr-14 09:33N 49°04' E 008°20'0 0.0
2014-Apr-14 08:33N 49°04' E 008°20'0 0.0
2014-Apr-14 07:33N 49°04' E 008°20'6 5.9
2014-Apr-14 06:33N 48°59' E 008°16'  

Dump ship's entire track history

sailing weather and tide predictions

Rp Zug — HE7351 — position and weather